Location: Malvern Link
(52.1333°N, 2.3000°W)
Time: 11:35:39
(UTC+00:00)

DIWATA 2B (PO-101) - Visible Passes

Search period start: 25 June 2022 00:00
Search period end: 05 July 2022 00:00
Orbit: 585 x 597 km, 98.0° (Epoch: 25 June)

Date Brightness Start Highest point End Pass type
(mag) Time Alt. Az. Time Alt. Az. Time Alt. Az.
25 Jun ? 00:50:18 10° ESE 00:53:50 27° ENE 00:57:24 10° N visible
25 Jun ? 02:25:19 10° SSW 02:29:13 40° W 02:33:13 10° NNW visible
26 Jun ? 00:58:24 10° SE 01:02:07 31° ENE 01:05:52 10° N visible
26 Jun ? 02:33:46 10° SSW 02:37:36 34° W 02:41:29 10° NNW visible
27 Jun ? 01:06:33 10° SE 01:10:24 37° ENE 01:14:18 10° N visible
27 Jun ? 02:42:20 10° SSW 02:46:00 29° W 02:49:42 10° NW visible
28 Jun ? 01:14:43 10° SE 01:18:42 43° ENE 01:22:43 10° N visible
28 Jun ? 02:50:57 10° SSW 02:54:24 24° W 02:57:53 10° NW visible
29 Jun ? 01:22:56 10° SE 01:27:00 51° ENE 01:31:07 10° N visible
29 Jun ? 02:59:38 10° SW 03:02:49 21° W 03:06:02 10° NW visible
29 Jun ? 23:59:51 10° ENE 00:00:38 10° NE 00:01:25 10° NE visible
30 Jun ? 01:31:10 10° SSE 01:35:19 61° ENE 01:39:30 10° N visible
01 Jul ? 00:07:12 10° ENE 00:08:51 12° NE 00:10:31 10° NNE visible
01 Jul ? 01:39:27 10° SSE 01:43:38 73° ENE 01:47:52 10° N visible
02 Jul ? 00:14:54 10° E 00:17:05 14° NE 00:19:17 10° NNE visible
02 Jul ? 01:47:53 11° SSE 01:51:58 87° ENE 01:56:13 10° NNW visible
03 Jul ? 00:22:43 10° E 00:25:18 16° ENE 00:27:55 10° NNE visible
03 Jul ? 01:56:20 11° S 02:00:18 79° WSW 02:04:33 10° NNW visible
04 Jul ? 00:30:37 10° ESE 00:33:33 19° ENE 00:36:29 10° NNE visible
04 Jul ? 02:04:47 12° S 02:08:39 66° WSW 02:12:52 10° NNW visible
